Lid_Strength_Index
4 4 -1 -2 -2 -2 -2 -2 -1 -1 -1 -1 -1 -1 -1 -1 -1 -1 -1 -1 -1 -1 -1 -1 -1 -1 -1 -2 -2 -2 -2 -2 -1 -2 -2 -2 -2 -1 -1 -2 -1 -1 -1
5 3 -0 -2 -2 -2 -2 -2 -2 -2 -1 -1 -1 -1 -1 -1 -1 -1 -1 -1 -1 -1 -2 -1 -1 -2 -2 -2 -2 -2 -2 -2 -2 -1 -1 -1 -1 -1 -1 -2 -1 -1 -1
6 5 0 -2 -2 -2 -1 -2 -2 -2 -2 -2 -2 -2 -2 -2 -2 -1 -1 -2 -1 -1 -2 -2 -2 -2 -2 -2 -2 -2 -2 -2 -2 -1 -1 -1 -1 -1 -1 -1 -2 -1 -1
7 5 1 -1 -1 -1 -2 -2 -1 -1 -2 -2 -2 -2 -2 -2 -2 -2 -2 -2 -1 -1 -2 -2 -2 -2 -2 -2 -2 -1 -2 -2 -2 -1 -1 -1 -1 -1 -1 -1 -1 -1 -2
8 6 3 1 1 0 -0 -1 -1 -1 -1 -0 -0 -1 -1 -1 -1 -2 -2 -2 -2 -2 -2 -2 -2 -2 -2 -2 -2 -2 -1 -2 -1 -1 -1 -1 -1 -1 -1 -2 -1 -1 -1
9 8 4 3 2 2 1 1 0 0 1 1 0 0 -0 -0 -1 -1 -1 -1 -2 -2 -2 -2 -2 -2 -2 -2 -2 -2 -1 -1 -1 -1 -1 -1 -1 -1 -1 -2 -1 -1 -0
10 9 6 4 4 3 3 2 2 2 2 2 2 2 2 1 0 1 1 0 -0 -1 -2 -2 -2 -2 -2 -2 -2 -2 -1 -1 -1 -1 -1 -1 -1 -1 -1 -2 -1 -1 -1
11 10 10 7 6 5 5 4 4 4 4 4 4 4 4 3 3 3 3 2 1 1 1 0 -1 -2 -2 -2 -2 -2 -1 -0 -1 -1 -1 -1 -1 -1 -2 -1 -2 -1 -1
11 11 11 10 9 8 6 6 6 5 5 5 5 5 6 5 5 5 5 4 3 3 3 2 1 1 -1 -2 -2 -1 -1 -0 -1 -1 -1 -1 -1 -2 -2 -1 -2 -1 -1
12 12 12 11 11 10 10 8 7 7 7 7 7 7 7 7 7 7 7 6 5 4 4 4 3 1 0 -1 -1 -1 -1 -1 -1 -1 -1 -1 -1 -2 -2 -2 -2 -2 -1
13 13 12 12 12 11 11 11 10 9 9 9 9 9 9 9 9 9 8 7 6 6 5 5 4 3 4 5 4 3 -0 -1 -1 -1 -1 -1 -1 -2 -2 -1 -2 -1 -1
14 14 13 13 13 12 12 12 12 12 12 11 11 11 10 10 10 10 10 10 9 8 7 6 5 5 6 6 6 5 3 1 -1 -1 -1 -1 -1 -2 -2 -2 -1 -2 -1
14 14 14 13 13 13 12 13 12 12 12 12 12 11 11 11 11 11 11 11 10 10 9 8 7 7 7 7 7 6 6 5 2 -1 -1 -1 -1 -2 -2 -2 -2 -2 -2
15 14 14 14 13 13 13 13 13 13 12 12 12 12 12 12 13 12 12 12 11 10 9 8 8 8 8 7 7 7 7 6 5 4 -0 -0 -1 -2 -2 -2 -2 -2 -2
15 15 14 14 14 14 14 14 13 13 13 13 13 13 13 13 14 13 13 13 12 11 10 10 9 9 9 8 8 8 8 7 6 5 4 1 -1 -1 -2 -2 -2 -2 -2
15 15 14 14 14 14 14 14 14 14 14 14 14 14 14 14 14 14 14 14 13 12 12 11 11 10 9 8 8 8 8 7 7 6 6 5 0 -1 -1 -2 -2 -2 -2
15 15 15 14 14 14 14 14 14 14 14 14 14 14 14 14 15 15 15 15 14 14 14 13 12 10 9 9 9 8 7 7 7 7 6 6 5 0 -1 -2 -2 -2 -2
16 15 15 14 15 15 15 15 14 14 15 15 15 15 15 15 15 16 16 15 15 15 14 14 13 13 11 10 9 8 7 7 6 6 6 5 5 4 -1 -1 -1 -1 -1
16 16 15 15 15 15 15 15 15 15 15 15 15 16 16 16 16 16 16 16 15 15 15 15 14 14 14 12 11 10 8 7 7 6 6 5 5 5 5 -0 0 0 -1
16 16 15 15 15 15 15 15 15 16 16 16 16 16 16 16 16 16 16 16 16 16 15 15 15 14 13 12 11 10 9 8 7 6 6 5 5 5 4 4 -1 -0 1
17 16 16 16 16 16 16 16 17 17 17 17 16 16 16 16 16 16 16 16 16 16 16 16 15 15 13 12 13 11 10 8 8 7 6 5 5 4 3 2 -1 -0 -0
17 17 17 16 16 16 16 16 16 17 17 17 16 16 17 17 16 17 17 16 16 16 16 15 15 15 14 13 14 13 12 10 8 7 5 5 5 4 3 3 -1 -0 -0
17 17 17 17 16 16 16 17 17 17 17 17 17 17 17 17 17 17 17 17 16 16 16 16 15 16 16 15 14 13 13 12 10 8 6 6 6 3 3 2 -0 -0 -0
17 16 16 16 16 16 16 17 18 18 19 18 18 17 17 17 17 17 17 17 16 16 16 15 15 15 16 17 15 13 11 11 13 13 8 7 6 6 5 3 2 -0 -0
17 17 17 17 16 16 16 17 18 19 18 18 18 18 18 18 18 17 17 16 16 16 16 16 16 16 16 16 16 15 14 11 10 12 13 10 7 6 5 4 3 4 3
17 17 17 17 17 16 17 18 18 19 19 19 19 19 19 19 18 18 17 17 16 16 16 16 16 16 16 15 15 14 14 15 13 11 11 10 9 8 6 5 5 4 4